indice_tiempo,ipc_2016_nivgeneral,ipc_2016_estacionales,ipc_2016_regulados,ipc_2016_nucleo
2016-04-01,85.5254,89.856,84.0036,85.3797
2016-05-01,89.1118,93.7059,91.3453,87.6489
2016-06-01,91.8528,96.2581,94.4671,90.2893
2016-07-01,93.7328,99.5762,96.2589,91.9791
2016-08-01,93.9221,95.2761,94.5591,93.4982
2016-09-01,95.0014,99.189,93.2777,94.9462
2016-10-01,97.2428,101.1247,97.2229,96.6551
2016-11-01,98.8166,101.5561,99.054,98.3164
2016-12-01,100.0,100.0,100.0,100.0
2017-01-01,101.313,101.5562,101.1274,101.3389
2017-02-01,103.8085,102.0783,106.3489,103.2097
2017-03-01,106.2627,105.879,109.8871,105.0891
2017-04-01,109.0613,108.5334,113.8991,107.4973
2017-05-01,110.4607,108.0039,115.2166,109.2199
2017-06-01,111.9943,109.5654,116.3567,110.8829
2017-07-01,113.9199,110.1248,118.809,112.8387
2017-08-01,115.6031,111.4882,120.5959,114.5355
2017-09-01,117.9656,117.1944,122.4798,116.5488
2017-10-01,119.4985,119.8444,124.1174,117.8751
2017-11-01,120.8941,121.0014,125.1994,119.4138
2017-12-01,125.0392,121.1666,136.3959,121.7707
2018-01-01,127.0147,125.177,138.0631,123.5396
2018-02-01,130.2913,124.0173,145.0608,126.2302
2018-03-01,133.5028,127.2642,148.5483,129.3424
2018-04-01,136.938,126.8401,155.8449,132.0556
2018-05-01,139.58,130.801,155.6943,135.4453
2018-06-01,145.0582,134.963,161.208,141.1129
2018-07-01,149.1178,140.4659,164.5163,145.2069
2018-08-01,155.1747,142.5765,176.4489,149.8703
2018-09-01,165.4903,150.7758,183.6169,161.5802
2018-10-01,173.8549,160.1883,195.871,168.4619
2018-11-01,178.877,162.6491,201.0923,173.8085
2018-12-01,183.9381,165.9782,206.7685,178.9256
2019-01-01,189.1236,168.3449,213.3075,184.0826
2019-02-01,196.3597,171.1095,223.7149,190.9251
2019-03-01,205.7679,181.0118,236.4956,199.1109
2019-04-01,212.4469,181.6677,243.8179,206.4935
2019-05-01,218.8793,182.0922,252.0521,213.2333
2019-06-01,224.6105,186.9309,258.7342,218.7778
2019-07-01,229.4286,194.6997,262.7838,223.4054
2019-08-01,238.3069,200.5743,267.9214,234.0155
2019-09-01,252.1482,221.4755,276.0843,248.7065
2019-10-01,260.2101,227.3906,280.964,258.1791
2019-11-01,270.8019,246.5681,290.97,267.6554
2019-12-01,281.1775,250.1103,304.2211,278.0997
2020-01-01,286.4913,258.9888,306.6681,283.8423
2020-02-01,291.737,265.6065,308.9154,289.8974
2020-03-01,302.2274,277.9951,321.6141,299.3463
2020-04-01,306.4483,291.1675,319.8458,304.233
2020-05-01,311.0922,309.8062,319.5828,308.4023
2020-06-01,317.4661,320.8225,321.5532,315.5625
2020-07-01,322.6791,320.9339,323.237,322.7566
2020-08-01,331.6957,335.6514,325.869,333.0711
2020-09-01,340.902,366.825,330.8397,340.3537
2020-10-01,353.0444,400.0067,334.7653,352.0682
2020-11-01,363.5381,402.7498,337.2247,366.4805
2020-12-01,377.0507,409.3459,345.6189,382.7926
2021-01-01,389.4454,417.5823,360.6249,394.9362
2021-02-01,403.4854,432.2007,366.1731,411.7749
2021-03-01,424.4539,478.4265,384.7868,429.6765
2021-04-01,441.8955,483.9521,398.1806,450.3191
2021-05-01,456.7856,484.2464,416.3019,466.3456
2021-06-01,470.784,487.8827,427.9781,482.7204
2021-07-01,485.3036,510.9114,433.2793,499.0713
2021-08-01,497.9371,515.5531,441.595,514.3968
2021-09-01,517.0425,554.499,457.2078,531.6515
2021-10-01,536.5423,608.3157,466.6016,549.3325
2021-11-01,548.7073,598.9655,470.1643,567.7171
2021-12-01,570.9981,629.1429,477.4545,593.9007
2022-01-01,593.4219,686.9871,491.6655,613.693
2022-02-01,620.5007,744.0911,503.5405,641.3434
2022-03-01,661.8688,789.1614,549.1464,680.7038
2022-04-01,702.829,835.3813,567.2638,728.6254
2022-05-01,736.3637,859.3585,597.5182,764.7389
2022-06-01,776.6701,920.5119,628.0769,805.1675
2022-07-01,833.8894,1021.8762,657.4233,865.104
2022-08-01,891.851,1097.1543,702.1983,924.8975
2022-09-01,945.6836,1224.724,731.7239,975.7034
2022-10-01,1007.6275,1331.2452,789.4266,1032.2633
2022-11-01,1058.0026,1380.2361,840.6752,1082.5534
2022-12-01,1114.5359,1458.6084,875.0145,1143.2887
2023-01-01,1180.967,1548.1443,940.4446,1206.5221
2023-02-01,1259.9952,1614.4139,991.4786,1297.0224
2023-03-01,1358.4995,1796.6041,1081.2155,1385.6929
2023-04-01,1475.1378,2037.5064,1141.9467,1502.3119
2023-05-01,1592.4496,2160.8528,1252.443,1621.017
2023-06-01,1685.1612,2170.5831,1344.1707,1726.7702
2023-07-01,1789.4275,2269.824,1432.3543,1837.2743
2023-08-01,2008.8079,2503.4051,1560.3887,2085.5392
2023-09-01,2253.4785,2902.3424,1676.2644,2350.3791
2023-10-01,2447.565,3136.14,1788.3084,2566.2803
2023-11-01,2763.435,3517.4298,1959.9785,2921.1627
2023-12-01,3456.6426,4083.1796,2300.9443,3753.6557
2024-01-01,4132.479,4758.7129,2867.0995,4466.8319
2024-02-01,4751.2725,5204.0041,3691.3624,5042.3312
2024-03-01,5296.8225,5842.3567,4363.4797,5530.6354
